Address 0x3e139f38e7392fe7002a0f6ce61beeb874555c48

Txn Hash Method
Block
From
To
Value [Txn Fee]
0x68d6c212ccdb1c435a1542a788d93d2fd250592303c52f4a5d2a17ddb7994c5dDeposit58384382022-12-03 0:52:066 days 19 hrs ago0x3e139f38e7392fe7002a0f6ce61beeb874555c48OUT 0x55ef975804dac160fed31616196de9b9e44c17a50 CRO9.0610682935080
0xc5cb2e8ec721bad57c168fef5cc44d1f73996e6ff81758d1202fe3f0e4ce60b2Withdraw58384252022-12-03 0:50:536 days 19 hrs ago0x3e139f38e7392fe7002a0f6ce61beeb874555c48OUT 0x00f5e2a16503bc5992858867cc675472c81161b10 CRO5.7549986654710
0x9298e4651d73ef7f8bce2c366166ebbebe920abf0e8f25287d94e6379650e37dDeposit57647342022-11-28 4:12:2411 days 15 hrs ago0x3e139f38e7392fe7002a0f6ce61beeb874555c48OUT 0x990e9683e6ba5079cdb235838856029a50dad84c0 CRO2.223660
0xf6859a9368cf9b0eaf3023f4ed1d08cc2497f54312e8e0817343e3f0808bd63eEnter Pool57647262022-11-28 4:11:3811 days 15 hrs ago0x3e139f38e7392fe7002a0f6ce61beeb874555c48OUT 0x7fe4db9063b7dd7ba55313b9c258070bed2c143a0 CRO0.3795250
0x3e84acce6909cc2f9104bd3d4a667e0ed03aef2ed9509a2e894ff5dd961c9f93Withdraw All57647182022-11-28 4:10:5311 days 15 hrs ago0x3e139f38e7392fe7002a0f6ce61beeb874555c48OUT 0xb29cce04365400409d476e95410547275d1f86cf0 CRO1.2608988712920
0x898f3727fe463ee0676236b1acee6a32627abd32545d9707f4eef922b9afd181Deposit57647092022-11-28 4:10:0211 days 15 hrs ago0x3e139f38e7392fe7002a0f6ce61beeb874555c48OUT 0x990e9683e6ba5079cdb235838856029a50dad84c0 CRO1.216950
0xc07a2738bde0f72a0f4d2e4d9998b3dc29fb6d90a2dfbc7741fc8788e84b2746Deposit57646892022-11-28 4:08:0811 days 15 hrs ago0x3e139f38e7392fe7002a0f6ce61beeb874555c48OUT CroKing: CRQ Single Staking0 CRO7.1398311410290
0x994d16e3bfe43b869b97bc8f3b1853ba1bbd30b2721961a1614fc867ebb476c5Deposit57646832022-11-28 4:07:3411 days 15 hrs ago0x3e139f38e7392fe7002a0f6ce61beeb874555c48OUT CroKing: CRQ Single Staking0 CRO9.4383235411960
0xe090da86e4eea8ca15ebc055e6d2364630638fa780fb1c8b89b919e5273a30dcWithdraw57646762022-11-28 4:06:5411 days 15 hrs ago0x3e139f38e7392fe7002a0f6ce61beeb874555c48OUT 0x55ef975804dac160fed31616196de9b9e44c17a50 CRO6.4197493724930
0xfb1411b9e96f4e7da4bae9032f8c215c91e224e42fbb034b35c118c93d0f488cTransfer57645322022-11-28 3:53:0811 days 16 hrs agoCrypto.com: CDC Withdrawal IN 0x3e139f38e7392fe7002a0f6ce61beeb874555c48199.8 CRO0.1050
0xa0958f4ab03e6f7867f75fa3981996e8fbaf4019beecde4d0e35e268d98f62a5Deposit All53380512022-10-31 2:39:2439 days 17 hrs ago0x3e139f38e7392fe7002a0f6ce61beeb874555c48OUT 0xb29cce04365400409d476e95410547275d1f86cf0 CRO2.6920376131810
0xb9e91f6ef33aa2d644560eae2211a916ffe14909377696e4d3dc760f69b067ceDeposit53380422022-10-31 2:38:3339 days 17 hrs ago0x3e139f38e7392fe7002a0f6ce61beeb874555c48OUT 0x990e9683e6ba5079cdb235838856029a50dad84c0 CRO1.216950
0xf99d973720b1cc639d9ec2e8bd04f8350f53aa1b84822f10b128db0c02ec30bbDeposit53380392022-10-31 2:38:1739 days 17 hrs ago0x3e139f38e7392fe7002a0f6ce61beeb874555c48OUT 0x990e9683e6ba5079cdb235838856029a50dad84c0 CRO0.5861550
0x08f12b5010f7e93a4eb7e043306fecf60cf26fd129c76ec78124c11cae463dcfDeposit53380182022-10-31 2:36:1739 days 17 hrs ago0x3e139f38e7392fe7002a0f6ce61beeb874555c48OUT 0x00f5e2a16503bc5992858867cc675472c81161b10 CRO5.9535930989520
0x185af886d920c5de9e7f3b70d9f8bca06075bbf6784a0a2e6d83527fac1e7c0dDeposit53380122022-10-31 2:35:4439 days 17 hrs ago0x3e139f38e7392fe7002a0f6ce61beeb874555c48OUT CroKing: CRQ Single Staking0 CRO7.1684381501210
0x9be0644251beb3372ac76587a30e31e04d71b4e80f5f7065fbfa9906a4b7e120Deposit53379912022-10-31 2:33:4539 days 17 hrs ago0x3e139f38e7392fe7002a0f6ce61beeb874555c48OUT CroKing: CRQ Single Staking0 CRO9.4761409565880
0x870fa5a51845e34eda6798bea0ebc9e72d8e0600be7f38060c22a70d23a47c87Withdraw53379862022-10-31 2:33:1739 days 17 hrs ago0x3e139f38e7392fe7002a0f6ce61beeb874555c48OUT 0x55ef975804dac160fed31616196de9b9e44c17a50 CRO9.5377389921730
0x9de9ed9c781b33316656fe40c40f4be709fa0c49bc6894cacfc0466fbf56e87cTransfer53363372022-10-30 23:57:2039 days 20 hrs agoCrypto.com: CDC Withdrawal IN 0x3e139f38e7392fe7002a0f6ce61beeb874555c4839.8 CRO0.1050
0x3b57469c3e9f12aefbfc2e3c38f199ce10020beb3b390df9ea7509f8b05934a6Deposit All50793992022-10-14 2:39:1756 days 17 hrs ago0x3e139f38e7392fe7002a0f6ce61beeb874555c48OUT 0xb29cce04365400409d476e95410547275d1f86cf0 CRO2.6780166595610
0xe1632c5bcf217eccc1f4c0e9c30856fb99094284b72dc7627bdea117ecb96bc1Deposit50793802022-10-14 2:37:3056 days 17 hrs ago0x3e139f38e7392fe7002a0f6ce61beeb874555c48OUT 0x990e9683e6ba5079cdb235838856029a50dad84c0 CRO2.223660
0x3f69f39f87471cb282c964b1d9beea03e78d63af7034f1f8aad9784d6bb8ca3fEnter Pool50793702022-10-14 2:36:3356 days 17 hrs ago0x3e139f38e7392fe7002a0f6ce61beeb874555c48OUT 0x7fe4db9063b7dd7ba55313b9c258070bed2c143a0 CRO0.3795250
0x584715bd3aee96d0784045ba29d37063579a9641956e9abce40dc6f353c176adSwap Exact ETH F...50793642022-10-14 2:35:5956 days 17 hrs ago0x3e139f38e7392fe7002a0f6ce61beeb874555c48OUT VVS Finance: Router200 CRO0.7315350
0xb9773cd966053627202f6d64fb144aacbf55be77444b38532516790f83b35bf8Transfer50793522022-10-14 2:34:5056 days 17 hrs agoCrypto.com: CDC Withdrawal IN 0x3e139f38e7392fe7002a0f6ce61beeb874555c48199.8 CRO0.1050
0xa4050745ccd681bbd8f908f601d3df61a06319d5b06e307320367b04500e0e53Deposit All48341712022-09-27 23:48:1272 days 20 hrs ago0x3e139f38e7392fe7002a0f6ce61beeb874555c48OUT 0xb29cce04365400409d476e95410547275d1f86cf0 CRO2.6841680131980
0x42c0d322250e0e0db3ef938d0a8e4ac15c6b7476f77651496254b025043945deDeposit48053822022-09-26 2:16:5874 days 17 hrs ago0x3e139f38e7392fe7002a0f6ce61beeb874555c48OUT 0x990e9683e6ba5079cdb235838856029a50dad84c0 CRO1.216950
[ Download CSV Export 
Latest 4 internal transactions
Parent Txn Hash Block From To Value
0x97257737369466295775d3b48080a06ea12f19d85a107d2550b91bf11416f57922522912022-04-08 3:57:06245 days 16 hrs ago Cronos: WCRO Token0x3e139f38e7392fe7002a0f6ce61beeb874555c4810.073767154757811264 CRO
0x993950269542cda0af1c46077c47be03504ca7812139288158d8e9311ca4d2be15594522022-02-19 16:50:44293 days 3 hrs ago Cronos: WCRO Token0x3e139f38e7392fe7002a0f6ce61beeb874555c4813.150323324901243017 CRO
0x078fdc05f2638bcb755e7c80d4e2230bab230e4473029de2b8d7e9d4c79aada315217582022-02-17 3:39:26295 days 16 hrs ago Mad Meerkat Finance: Master Meerkat & Router0x3e139f38e7392fe7002a0f6ce61beeb874555c480.000024164525224222 CRO
0x1b5b9076979f955b5519a52ec27cbdeb598513f20cf7d3323ef8e1bfbc51424c2271122021-11-22 18:38:42382 days 1 hr ago VVS Finance: Router0x3e139f38e7392fe7002a0f6ce61beeb874555c480.00195365663889787 CRO
[ Download CSV Export 
Loading

Contract Name:
0

Compiler Version
0

Optimization Enabled:
0

Other Settings:
-NA-
Block Transaction Gas Used Reward
Age Block Fee Address BC Fee Address Voting Power Jailed Incoming
Block Uncle Number Difficulty Gas Used Reward
Loading
Make sure to use the "Vote Down" button for any spammy posts, and the "Vote Up" for interesting conversations.